Regional Weather Roundup
Issued by NWS

Home | Current Version | Previous Version | Text Only | Print | Product List | Glossary Off
Versions: 1 2 3 4 5 6 7 8 9 10 11 12 13 14 15 16 17 18 19 20 21 22 23 24 25 26 27 28 29 30 31 32 33 34 35 36 37 38 39 40 41 42 43 44 45 46 47 48 49 50

000
ASUS43 KMPX 011410
RWRMN
WEATHER ROUNDUP FOR MINNESOTA
NATIONAL WEATHER SERVICE TWIN CITIES/CHANHASSEN MN
900 AM CDT WED APR 01 2015


NOTE: "FAIR" INDICATES FEW OR NO CLOUDS BELOW 12,000 FEET WITH NO
SIGNIFICANT WEATHER AND/OR OBSTRUCTIONS TO VISIBILITY. N/A MEANS
CURRENT SKY AND/OR WEATHER CONDITIONS ARE NOT AVAILABLE.

MNZ060>063-068>070-011500-
   Twin Cities Metro

CITY           SKY/WX    TMP DP  RH WIND       PRES   REMARKS
TWIN CITIES    MOSUNNY   51  35  54 SE13      29.76F
ST PAUL        MOSUNNY   51  34  52 SE13      29.78F
CRYSTAL        MOSUNNY   54  34  46 SE12      29.73F
BLAINE         PTSUNNY   54  36  50 SE13G21   29.75F
LAKEVILLE      SUNNY     50  37  62 S3        29.76F
EDEN PRAIRIE   SUNNY     55  34  45 SE12      29.73F
SOUTH ST PAUL  MOSUNNY   51  34  53 SE7       29.77F
LAKE ELMO      FAIR      50  34  53 SE10G16   29.79F
$$
MNZ001>005-007-008-013>017-022>024-027-028-011500-
   Northwest Minnesota

CITY           SKY/WX    TMP DP  RH WIND       PRES   REMARKS
BEMIDJI        SUNNY     42  30  61 SE16G23   29.57F
HALLOCK        PTSUNNY   46  30  53 SE15G22   29.44F
ROSEAU         CLOUDY    45  32  61 SE14G23   29.51F
WARROAD        CLOUDY    39  32  75 E9G18     29.54F
THIEF RVR FALL PTSUNNY   46  34  61 SE16      29.48F
CROOKSTON      PTSUNNY   54  34  47 S21       29.45F
FOSSTON        MOSUNNY   46  32  57 SE13      29.50F
DETROIT LAKES  SUNNY     46  32  57 SE18G24   29.52F
MOORHEAD       SUNNY     54  36  50 SE16G22   29.46F
PARK RAPIDS    MOSUNNY   48  28  46 SE16      29.58F
MAHNOMEN       FAIR      51  32  48 SE16G24   29.48F
$$
MNZ006-009>011-018-025>026-011500-
   North Central Minnesota

CITY           SKY/WX    TMP DP  RH WIND       PRES   REMARKS
BAUDETTE       PTSUNNY   40  30  67 SE13      29.58F
FLAG ISLAND    MOSUNNY   37  30  75 SE13G20   29.57F
INTL FALLS     MOSUNNY   39  30  70 SE12      29.67F
WASKISH        MOSUNNY   45  32  61 SE14G23   29.59F
BIG FORK       SUNNY     43  30  61 SE13G23   29.65F
LONGVILLE      MOSUNNY   43  30  61 SE14G22   29.64F
GRAND RAPIDS   SUNNY     39  28  65 SE15G24   29.68F
CRANE LAKE     PTSUNNY   36  30  80 SE2       29.75F
ORR            MOSUNNY   39  27  60 SE9G22    29.68S
COOK           PTSUNNY   39  28  65 SE13G18   29.72F
WALKER         FAIR      42  29  62 SE8G18    29.61F
$$
MNZ012-019>021-037-011500-
   Northeast Minnesota

CITY           SKY/WX    TMP DP  RH WIND       PRES   REMARKS
DULUTH         PTSUNNY   32  29  88 E20G25    29.79F WCI  20
ELY            MOSUNNY   36  28  75 SE13G23   29.76F
EVELETH        CLOUDY    36  30  80 SE10G18   29.76F
DULUTH HARBOR  CLOUDY    34  30  86 NE23      29.86F WCI  22
TWO HARBORS    CLOUDY    34  28  80 E17       29.83F WCI  23
SILVER BAY     FOG       32  30  93 NE9       29.86F VSB 1/2 WCI  24
GRAND MARAIS     N/A     31  29  92 E15       29.95F WCI  20
G MARAIS ARPRT FOG       27  25  93 E7        29.88F VSB<1/4 WCI  19
$$
MNZ029>031-032-039>041-046>048-054>057-064-011500-
   West Central Minnesota

CITY           SKY/WX    TMP DP  RH WIND       PRES   REMARKS
FERGUS FALLS   MOSUNNY   55  30  38 SE20G25   29.51F
WHEATON        PTSUNNY   48  36  61 SE16      29.49F
MORRIS         MOSUNNY   52  37  58 SE17      29.52F
ALEXANDRIA     MOSUNNY   49  34  56 SE15      29.57F
ELBOW LAKE     FAIR      55  35  46 SE22      29.51F
WADENA         MOSUNNY   46  30  53 SE15      29.56F
GLENWOOD       MOSUNNY   54  36  50 S16G22    29.58F
APPLETON       MOSUNNY   64  34  32 S15       29.54F
BENSON         SUNNY     57  34  41 S15       29.56F
ORTONVILLE     PTSUNNY   61  36  39 S8G17     29.50F
MADISON        PTSUNNY   63  34  34 SW33G45   29.49F
WILLMAR        FAIR      54  34  47 S15       29.62F
$$
MNZ033>034-036-042>043-049>051-058-059-011500-
   Central Minnesota

CITY           SKY/WX    TMP DP  RH WIND       PRES   REMARKS
ST CLOUD       MOSUNNY   50  33  52 SE14      29.68F
SAUK CENTRE    FAIR      50  35  55 SE15      29.60F
PAYNESVILLE    MOSUNNY   48  33  56 E13       29.63F
AITKIN         MOSUNNY   46  32  57 SE15      29.66F
PINE RIVER     MOSUNNY   43  30  61 SE14      29.67F
BRAINERD       MOSUNNY   47  30  51 SE9G21    29.66F
STAPLES        PTSUNNY   46  28  49 SE9       29.60F
LONG PRAIRIE   FAIR      46  34  61 SE13G18   29.61F
LITTLE FALLS   PTSUNNY   45  30  57 SE10      29.65F
LITCHFIELD     MOSUNNY   54  34  47 S3        29.66F
BUFFALO        MOSUNNY   54  32  43 SE10G17   29.71F
MAPLE LAKE     MOSUNNY   55  36  49 S12G17    29.70F
$$
MNZ037-044-045-052-053-011500-
   East Central Minnesota

CITY           SKY/WX    TMP DP  RH WIND       PRES   REMARKS
PRINCETON      PTSUNNY   52  32  46 SE10      29.72F
MORA           PTSUNNY   45  32  61 SE9       29.75F
CAMBRIDGE      PTSUNNY   50  34  53 SE12G21   29.71F
RUSH CITY      MOSUNNY   49  32  53 SE14G20   29.75F
MOOSE LAKE     MOSUNNY   39  32  75 CALM      29.75F
HINCKLEY       FAIR      43  32  65 E8        29.76F
CLOQUET        MOSUNNY   36  30  80 SE9       29.78F
MCGREGOR       MOSUNNY   41  32  70 SE15G24   29.71F
$$
MNZ071>073-080-081-089-090-097-098-011500-
   Southwest Minnesota

CITY           SKY/WX    TMP DP  RH WIND       PRES   REMARKS
MONTEVIDEO     MOSUNNY   63  36  36 SW21G30   29.56F
GRANITE FALLS  MOSUNNY   63  33  32 S30G38    29.60F
CANBY          MOSUNNY   60  33  35 SW29G44   29.53F
MARSHALL       PTSUNNY   61  32  33 SW38G47   29.59F
REDWOOD FALLS  MOSUNNY   64  32  30 S30G40    29.62F
OLIVIA         SUNNY     57  36  44 S17G24    29.63F
PIPESTONE      MOSUNNY   57  34  41 S24G32    29.64F
WINDOM         PTSUNNY   61  30  31 S21G29    29.68F
WORTHINGTON    SUNNY     57  30  35 S26G39    29.70F
JACKSON        MOSUNNY   59  30  33 S20G25    29.72F
TRACY          PTSUNNY   60  33  35 S23G37    29.63F
SLAYTON        MOSUNNY   57  27  31 S28G35    29.66F
$$
MNZ065>067-074>077-082>085-091>093-011500-
   South Central Minnesota

CITY           SKY/WX    TMP DP  RH WIND       PRES   REMARKS
MANKATO        SUNNY     54  34  47 S15       29.74F
NEW ULM        SUNNY     54  34  47 S14       29.69F
ST JAMES       MOSUNNY   57  32  38 S20G26    29.71F
FAIRMONT       MOSUNNY   54  34  47 S21       29.73F
GLENCOE        MOSUNNY   55  39  55 S9G20     29.69F
FARIBAULT      SUNNY     52  36  54 S14       29.77F
OWATONNA       SUNNY     52  36  54 S15G23    29.78F
WASECA         SUNNY     52  36  54 S18       29.78F
ALBERT LEA     SUNNY     52  36  54 S10       29.79F
$$
MNZ078>079-086>088-094>096-011500-
   Southeast Minnesota

CITY           SKY/WX    TMP DP  RH WIND       PRES   REMARKS
ROCHESTER      SUNNY     50  35  56 S17       29.84F
RED WING       SUNNY     52  32  46 E13       29.81F
STANTON        SUNNY     54  36  51 S13G20    29.77F
DODGE CENTER   SUNNY     54  37  54 S17G24    29.80F
WINONA         SUNNY     46  34  61 SE12      29.89F
AUSTIN         SUNNY     50  36  57 S8        29.82F
PRESTON        SUNNY     50  34  54 S12       29.87F
$$
ABBREVIATIONS USED IN REMARKS
   TC - TEMPERATURES IN CELSIUS
  WCI - WIND CHILL INDEX
   HX - HEAT INDEX
  VSB - VISIBILITY
$$


USA.gov is the U.S. government's official web portal to all federal, state and local government web resources and services.